User: anonymous   Login
Location: Palomar Mountain Lodge
(33.3110°N, 116.8495°W)
Time: 19:05:40
(UTC-08:00)
Language:

SWIFT - Orbit

View from above orbital plane
View from above orbital plane
View from above satellite
View from above satellite

Ground track
Ground track

The orbit data is extracted from the following two-line orbital elements,

1 28485U 04047A   19054.52817004  .00000790  00000-0  23746-4 0  9990
2 28485  20.5564 143.7986 0011399 106.5656 253.6031 15.04305686781128
Epoch (UTC): 23 February 2019 12:40:33
Eccentricity: 0.0011399
inclination: 20.5564°
perigee height: 546 km
apogee height: 561 km
right ascension of ascending node: 143.7986°
argument of perigee: 106.5656°
revolutions per day: 15.04305686
mean anomaly at epoch: 253.6031°
orbit number at epoch: 78112

The dashed part of the orbit path shows where the satellite is in the earth's shadow,  

DLR